Weather Roundup
Issued by NWS

Home | Current Version | Previous Version | Graphics & Text | Print | Product List | Glossary Off
Versions: 1 2 3 4 5 6 7 8 9 10 11 12 13 14 15 16 17 18 19 20 21 22 23 24 25 26 27 28 29 30 31 32 33 34 35 36 37 38 39 40 41 42 43 44 45 46 47 48 49 50

201
NZUS93 KARX 252059
HRRWXR

CURRENT HOURLY OBSERVATIONS ACROSS
MUCH OF THE UPPER MISSISSIPPI VALLEY
NATIONAL WEATHER SERVICE LA CROSSE WI
400 PM CDT TUE APR 25 2017


...SOUTHEAST MINNESOTA...


CITY           SKY/WX    TMP DP  RH WIND       PRES   REMARKS
ROCHESTER      LGT RAIN  53  52  96 NE8       29.55F FOG
ROCHESTER/MAYO CLOUDY    53  53 100 NE5       29.55F
WINONA         DRIZZLE   59  55  88 CALM      29.57S
AUSTIN         LGT RAIN  52  48  87 N6        29.53F
ALBERT LEA     LGT RAIN  48  46  93 NE6       29.52F
DODGE CENTER   RAIN      50  48  93 N5        29.55F
PRESTON        CLOUDY    56  51  85 N5        29.55S
OWATONNA       DRIZZLE   48  46  93 CALM      29.55F
FARIBAULT      DRIZZLE   48  46  93 CALM      29.56F
$$

...ELSEWHERE IN MINNESOTA...


CITY           SKY/WX    TMP DP  RH WIND       PRES   REMARKS
MINNEAPOLIS    LGT RAIN  53  47  79 S3        29.56F
INTNL FALLS    CLOUDY    32  26  78 NE18G26   29.81R WCI  20
DULUTH         CLOUDY    51  39  63 SE15      29.61R
RED WING       RAIN      54  50  87 CALM      29.56S
REDWOOD FALLS  LGT RAIN  45  41  86 W15       29.57R
MANKATO        LGT RAIN  46  45  96 NE6       29.55F
WORTHINGTON    LGT RAIN  40  38  93 N13       29.58R WCI  32
FAIRMONT       LGT RAIN  44  42  93 N6        29.56S
$$

...SOUTHWEST WISCONSIN...


CITY           SKY/WX    TMP DP  RH WIND       PRES   REMARKS
LA CROSSE      CLOUDY    61  55  81 N6        29.54S
PRAIRIE DU CHI CLOUDY    71  42  35 E8        29.51F
BOSCOBEL       PTSUNNY   73  43  33 VRB3      29.52R
LONE ROCK      NOT AVBL
PLATTEVILLE    CLOUDY    74  44  34 SE16G23   29.53S
FORT MC COY    RAIN      66  49  53 SW5       29.57R
CAMP DOUGLAS   LGT RAIN  70  43  37 S12G18    29.55R
MAUSTON-NEW LI CLOUDY    71  44  37 S6        29.54S
VIROQUA        CLOUDY    64  51  61 SE3       29.55F
WIS DELLS      CLOUDY    69  40  34 SE5       29.55F
$$

...ELSEWHERE IN WISCONSIN...


CITY           SKY/WX    TMP DP  RH WIND       PRES   REMARKS
MILWAUKEE      CLOUDY    66  51  58 SE14      29.60F
MADISON        LGT RAIN  72  43  35 S17       29.54F
GREEN BAY      MOSUNNY   71  52  50 SE15G23   29.60F
EAU CLAIRE     LGT RAIN  66  49  54 SW12G22   29.55R
BLACK RVR FLS  RAIN      62  50  64 W6        29.57R
MEDFORD        CLOUDY    69  42  37 SE7       29.55F
WAUSAU         CLOUDY    72  38  29 S12       29.54F
WIS RAPIDS     CLOUDY    74  40  29 S10       29.54F
MARSHFIELD     CLOUDY    70  40  33 S10       29.54F
RICE LAKE      LGT RAIN  69  45  42 SW15      29.55R
$$

...NORTHEAST IOWA...


CITY           SKY/WX    TMP DP  RH WIND       PRES   REMARKS
WATERLOO       PTSUNNY   72  47  40 E9        29.45F
DUBUQUE        CLOUDY    72  42  34 S17       29.51F
DECORAH        CLOUDY    66  48  52 E10       29.51F
MASON CITY     CLOUDY    54  50  86 N12       29.51F
CHARLES CITY   PTSUNNY   64  52  63 NE8       29.50F
OELWEIN        CLOUDY    73  45  35 SE15G21   29.48F
$$

...ELSEWHERE IN IOWA...


CITY           SKY/WX    TMP DP  RH WIND       PRES   REMARKS
DES MOINES     CLOUDY    72  48  42 SE12      29.42S
IOWA CITY      CLOUDY    77  45  32 SE14G23   29.46F
FORT DODGE     CLOUDY    54  46  76 N9        29.49S
MARSHALLTOWN   CLOUDY    73  47  39 S14       29.43F
CEDAR RAPIDS   MOSUNNY   75  45  34 SE14G21   29.45F
$$

...NORTHERN ILLINOIS...


CITY           SKY/WX    TMP DP  RH WIND       PRES   REMARKS
CHICAGO-OHARE  PTSUNNY   78  49  35 S13       29.56F
CHICAGO-MIDWAY CLOUDY    79  50  36 SE16G24   29.56F
MOLINE         MOSUNNY   79  43  27 SE21G26   29.46F
ROCKFORD       CLOUDY    79  48  33 S18G28    29.55F
PEORIA         MOSUNNY   79  45  29 S18G31    29.48F
$$

NOTE: "FAIR" INDICATES FEW OR NO CLOUDS BELOW 12,000 FEET WITH NO
SIGNIFICANT WEATHER AND/OR OBSTRUCTIONS TO VISIBILITY. WIND
SPEEDS ARE IN MILES-PER-HOUR.




USA.gov is the U.S. government's official web portal to all federal, state and local government web resources and services.